Location: Linton
(52.0940°N, 0.2850°E)
Time: 08:24:49
(UTC+00:00)

ISS - Pass Details

Date: 17 November 2017
Orbit: 402 x 407 km, 51.6° (Epoch: 21 November)

Event Time Altitude Azimuth Distance (km) Brightness Sun altitude
Exits shadow 05:21:02 11° 196° (SSW) 1,400 -1.2 -18.4°
Drops below altitude 10° 05:21:19 10° 192° (SSW) 1,450 -1.1 -18.3°
Sets 05:24:15 0° 162° (SSE) 2,304 0.4 -17.9°
